When you browse on this site, cookies collect data to enhance your experience and personalize the content and advertising you see.
Visit our Privacy Policy to learn more. By continuing to use the site, you agree to this use of cookies and data.
  • In Portugal
  • List of Countries
  • For 7 days
  • Water Temperature
  • Weather Map
  • Weather Widgets
  • user-avatar
    Login

    Hourly Weather Shaki

    Today, 1 June, Monday

    Time Temperature Precipitation Wind Pressure Humidity
    00:00 +20°C° 0 mm 3 mps 734 mmHg 66%
    01:00 +19°C° 0 mm 2 mps 734 mmHg 66%
    02:00 +19°C° 0 mm 2 mps 734 mmHg 65%
    03:00 +19°C° 0 mm 1 mps 734 mmHg 64%
    04:00 +20°C° 0 mm 1 mps 734 mmHg 62%
    05:00 +21°C° 0 mm 1 mps 734 mmHg 60%
    06:00 +22°C° 0 mm 1 mps 734 mmHg 58%
    07:00 +23°C° 0 mm 1 mps 733 mmHg 54%
    08:00 +25°C° 0 mm 2 mps 733 mmHg 51%
    09:00 +26°C° 0 mm 2 mps 733 mmHg 46%
    10:00 +27°C° 0 mm 2 mps 733 mmHg 44%
    11:00 +29°C° 0 mm 2 mps 733 mmHg 42%
    12:00 +30°C° 0 mm 2 mps 733 mmHg 40%
    13:00 +30°C° 0 mm 2 mps 732 mmHg 38%
    14:00 +31°C° 0 mm 2 mps 731 mmHg 36%
    15:00 +32°C° 0 mm 2 mps 731 mmHg 34%
    16:00 +31°C° 0 mm 2 mps 731 mmHg 36%
    17:00 +30°C° 0 mm 2 mps 731 mmHg 38%
    18:00 +30°C° 0 mm 1 mps 731 mmHg 40%
    19:00 +28°C° 0 mm 1 mps 731 mmHg 41%
    20:00 +26°C° 0 mm 1 mps 731 mmHg 42%
    21:00 +24°C° 0 mm 1 mps 731 mmHg 43%
    22:00 +24°C° 0 mm 1 mps 731 mmHg 44%
    23:00 +23°C° 0 mm 2 mps 731 mmHg 46%

    Tomorrow, 2 June, Tuesday

    Time Temperature Precipitation Wind Pressure Humidity
    00:00 +21°C° 0 mm 2 mps 730 mmHg 47%
    01:00 +21°C° 0 mm 2 mps 730 mmHg 48%
    02:00 +22°C° 0 mm 1 mps 730 mmHg 49%
    03:00 +19°C° 0 mm 0 mps 730 mmHg 50%
    04:00 +20°C° 0 mm 0 mps 730 mmHg 50%
    05:00 +21°C° 0 mm 0 mps 730 mmHg 49%
    06:00 +22°C° 0 mm 0 mps 730 mmHg 49%
    07:00 +26°C° 0 mm 1 mps 730 mmHg 45%
    08:00 +28°C° 0 mm 1 mps 730 mmHg 40%
    09:00 +30°C° 0 mm 2 mps 730 mmHg 36%
    10:00 +31°C° 0 mm 2 mps 730 mmHg 33%
    11:00 +34°C° 0 mm 2 mps 730 mmHg 31%
    12:00 +35°C° 0 mm 2 mps 729 mmHg 28%
    13:00 +36°C° 0 mm 2 mps 729 mmHg 27%
    14:00 +36°C° 0 mm 2 mps 729 mmHg 26%
    15:00 +37°C° 0 mm 2 mps 728 mmHg 25%
    16:00 +34°C° 0.3 mm 4 mps 728 mmHg 34%
    17:00 +30°C° 0.3 mm 5 mps 729 mmHg 44%
    18:00 +27°C° 0.3 mm 7 mps 729 mmHg 53%
    19:00 +26°C° 0.6 mm 5 mps 729 mmHg 56%
    20:00 +25°C° 0.6 mm 4 mps 729 mmHg 59%
    21:00 +24°C° 0.6 mm 2 mps 729 mmHg 62%
    22:00 +24°C° 0.2 mm 2 mps 728 mmHg 64%
    23:00 +23°C° 0.2 mm 2 mps 728 mmHg 65%

    Day after tomorrow, 3 June, Wednesday

    Time Temperature Precipitation Wind Pressure Humidity
    00:00 +21°C° 0.2 mm 2 mps 727 mmHg 67%
    01:00 +20°C° 0.3 mm 2 mps 727 mmHg 70%
    02:00 +20°C° 0.3 mm 3 mps 727 mmHg 73%
    03:00 +19°C° 0.3 mm 3 mps 727 mmHg 76%
    04:00 +20°C° 0.1 mm 3 mps 727 mmHg 73%
    05:00 +21°C° 0.1 mm 3 mps 727 mmHg 70%
    06:00 +22°C° 0.1 mm 3 mps 727 mmHg 67%
    07:00 +25°C° 0 mm 3 mps 727 mmHg 59%
    08:00 +28°C° 0 mm 4 mps 727 mmHg 52%
    09:00 +30°C° 0 mm 4 mps 727 mmHg 44%
    10:00 +33°C° 0 mm 5 mps 727 mmHg 36%
    11:00 +35°C° 0 mm 5 mps 727 mmHg 28%
    12:00 +38°C° 0 mm 6 mps 728 mmHg 21%
    13:00 +38°C° 0 mm 6 mps 728 mmHg 20%
    14:00 +37°C° 0 mm 5 mps 728 mmHg 20%
    15:00 +37°C° 0 mm 5 mps 728 mmHg 19%
    16:00 +36°C° 0 mm 4 mps 728 mmHg 24%
    17:00 +34°C° 0 mm 3 mps 728 mmHg 29%
    18:00 +32°C° 0 mm 2 mps 728 mmHg 34%
    19:00 +29°C° 0.1 mm 2 mps 729 mmHg 38%
    20:00 +27°C° 0.1 mm 2 mps 729 mmHg 43%
    21:00 +25°C° 0.1 mm 2 mps 730 mmHg 47%
    22:00 +24°C° 0.1 mm 2 mps 730 mmHg 53%
    23:00 +22°C° 0.1 mm 3 mps 730 mmHg 60%

    4 June, Thursday

    Time Temperature Precipitation Wind Pressure Humidity
    00:00 +21°C° 0.1 mm 3 mps 730 mmHg 66%
    01:00 +20°C° 0 mm 3 mps 731 mmHg 68%
    02:00 +20°C° 0 mm 2 mps 731 mmHg 70%
    03:00 +19°C° 0 mm 2 mps 731 mmHg 71%
    04:00 +20°C° 0 mm 2 mps 732 mmHg 69%
    05:00 +21°C° 0 mm 2 mps 732 mmHg 67%
    06:00 +23°C° 0 mm 2 mps 732 mmHg 65%
    07:00 +25°C° 0 mm 2 mps 732 mmHg 59%
    08:00 +26°C° 0 mm 2 mps 733 mmHg 53%
    09:00 +28°C° 0 mm 2 mps 733 mmHg 47%
    10:00 +30°C° 0 mm 2 mps 733 mmHg 43%
    11:00 +31°C° 0 mm 2 mps 733 mmHg 39%
    12:00 +34°C° 0 mm 3 mps 733 mmHg 35%
    13:00 +34°C° 0 mm 3 mps 732 mmHg 34%
    14:00 +35°C° 0 mm 3 mps 732 mmHg 33%
    15:00 +35°C° 0 mm 3 mps 732 mmHg 32%
    16:00 +34°C° 0 mm 3 mps 732 mmHg 34%
    17:00 +34°C° 0 mm 3 mps 732 mmHg 37%
    18:00 +33°C° 0 mm 3 mps 732 mmHg 39%
    19:00 +30°C° 0 mm 4 mps 733 mmHg 46%
    20:00 +27°C° 0 mm 4 mps 733 mmHg 53%
    21:00 +25°C° 0 mm 5 mps 733 mmHg 60%
    22:00 +23°C° 0 mm 4 mps 733 mmHg 62%
    23:00 +22°C° 0 mm 3 mps 733 mmHg 64%

    5 June, Friday

    Time Temperature Precipitation Wind Pressure Humidity
    00:00 +21°C° 0 mm 2 mps 733 mmHg 66%
    01:00 +21°C° 0 mm 2 mps 733 mmHg 66%
    02:00 +21°C° 0 mm 2 mps 733 mmHg 66%
    03:00 +21°C° 0 mm 2 mps 733 mmHg 67%
    04:00 +21°C° 0 mm 2 mps 733 mmHg 67%
    05:00 +22°C° 0 mm 3 mps 734 mmHg 68%
    06:00 +22°C° 0 mm 3 mps 734 mmHg 69%
    07:00 +25°C° 0 mm 4 mps 734 mmHg 63%
    08:00 +27°C° 0 mm 4 mps 734 mmHg 57%
    09:00 +29°C° 0 mm 5 mps 734 mmHg 51%
    10:00 +32°C° 0 mm 4 mps 734 mmHg 45%
    11:00 +33°C° 0 mm 4 mps 735 mmHg 38%
    12:00 +35°C° 0 mm 4 mps 735 mmHg 31%
    13:00 +35°C° 0 mm 3 mps 735 mmHg 29%
    14:00 +36°C° 0 mm 3 mps 735 mmHg 27%
    15:00 +36°C° 0 mm 3 mps 734 mmHg 25%
    16:00 +35°C° 0.1 mm 3 mps 735 mmHg 28%
    17:00 +34°C° 0.1 mm 2 mps 735 mmHg 30%
    18:00 +32°C° 0.1 mm 1 mps 735 mmHg 33%
    19:00 +30°C° 0.1 mm 2 mps 735 mmHg 41%
    20:00 +27°C° 0.1 mm 3 mps 736 mmHg 48%
    21:00 +23°C° 0.1 mm 4 mps 736 mmHg 55%
    22:00 +22°C° 0 mm 3 mps 736 mmHg 57%
    23:00 +22°C° 0 mm 3 mps 737 mmHg 59%

    6 June, Saturday

    Time Temperature Precipitation Wind Pressure Humidity
    00:00 +21°C° 0 mm 2 mps 737 mmHg 61%
    01:00 +22°C° 0 mm 1 mps 737 mmHg 62%
    02:00 +21°C° 0 mm 1 mps 737 mmHg 63%
    03:00 +21°C° 0 mm 1 mps 737 mmHg 64%
    04:00 +21°C° 0.7 mm 1 mps 737 mmHg 67%
    05:00 +22°C° 0.7 mm 1 mps 737 mmHg 69%
    06:00 +22°C° 0.7 mm 1 mps 737 mmHg 72%
    07:00 +23°C° 0.8 mm 2 mps 737 mmHg 69%
    08:00 +24°C° 0.8 mm 2 mps 737 mmHg 67%
    09:00 +25°C° 0.8 mm 3 mps 737 mmHg 64%
    10:00 +26°C° 0.1 mm 3 mps 737 mmHg 61%
    11:00 +27°C° 0.1 mm 3 mps 736 mmHg 58%
    12:00 +28°C° 0.1 mm 3 mps 736 mmHg 55%
    13:00 +29°C° 0.1 mm 3 mps 736 mmHg 53%
    14:00 +29°C° 0.1 mm 2 mps 736 mmHg 50%
    15:00 +30°C° 0.1 mm 2 mps 735 mmHg 48%
    16:00 +30°C° 0 mm 1 mps 735 mmHg 49%
    17:00 +29°C° 0 mm 1 mps 735 mmHg 50%
    18:00 +29°C° 0 mm 1 mps 735 mmHg 51%
    19:00 +28°C° 0.1 mm 1 mps 736 mmHg 55%
    20:00 +26°C° 0.1 mm 1 mps 736 mmHg 59%
    21:00 +25°C° 0.1 mm 1 mps 736 mmHg 64%
    22:00 +24°C° 0.2 mm 1 mps 736 mmHg 66%
    23:00 +23°C° 0.2 mm 2 mps 736 mmHg 69%
    Show more